GEFSCGP_con_probscp_192.txt.gz
Probability
0 0 0 0 0 0 0 0 0 0 0 0 2 5 6 6 6 6 6 8 11 14 19 25 29 29 30 34 39 39 36 36 35 30 25 23 23 22 18 14 12 8 4 2
0 0 0 0 0 0 0 0 0 0 0 0 1 3 5 5 6 6 6 7 9 13 20 25 28 29 31 35 40 41 38 36 35 31 27 26 24 21 17 16 15 10 5 4
0 0 0 0 0 0 0 0 0 0 0 0 1 2 3 4 5 5 5 6 9 14 19 23 26 30 33 38 41 42 40 38 35 31 28 26 23 19 17 17 16 11 7 5
0 0 0 0 0 0 0 0 0 0 0 0 0 1 1 3 5 6 5 6 11 15 18 19 24 31 37 39 40 40 40 39 37 33 29 26 21 18 16 16 15 12 8 5
0 0 0 0 0 0 0 0 0 0 0 0 0 0 0 2 5 7 7 8 12 15 17 18 23 31 36 37 37 38 37 37 36 34 31 26 21 17 15 14 13 12 11 8
0 0 0 0 0 0 0 0 0 0 0 0 0 0 0 2 4 7 9 12 14 15 16 21 27 31 34 35 35 34 33 32 31 30 28 25 19 16 14 12 11 11 12 11
0 0 0 0 0 0 0 0 0 0 0 0 0 0 1 3 4 6 10 14 15 14 16 22 28 31 32 34 33 30 27 25 23 23 22 19 15 14 13 12 11 10 9 9
0 0 0 0 0 0 0 0 0 0 0 0 0 0 2 4 4 5 9 12 13 12 14 19 24 27 27 27 25 23 21 19 17 17 17 15 14 14 13 14 12 10 7 5
1 0 0 0 0 0 0 0 0 0 0 0 0 1 4 5 4 5 9 13 13 14 15 17 20 22 21 20 17 15 15 14 14 14 13 14 14 15 14 14 13 9 6 5
2 1 0 0 0 0 0 0 0 0 0 0 0 1 3 4 4 6 9 12 13 14 15 17 17 17 18 16 13 12 11 13 14 14 14 14 15 15 14 14 12 10 7 6
2 1 0 0 0 0 0 0 0 0 0 0 0 0 2 4 6 7 7 8 9 10 12 13 12 12 13 11 10 10 10 12 13 14 15 15 15 14 13 13 12 10 8 5
1 0 0 0 0 0 0 0 0 0 0 0 0 1 4 7 8 7 6 6 5 6 8 8 7 8 7 6 6 8 9 10 10 10 11 13 13 11 10 11 10 9 6 3
0 0 0 0 0 0 0 0 0 0 0 0 1 3 6 8 7 6 6 6 4 4 5 4 5 7 6 4 4 5 7 6 6 5 6 8 9 8 8 7 6 5 4 2
0 0 0 0 0 0 0 0 0 0 0 0 1 2 4 4 5 5 5 6 5 4 3 2 3 5 6 5 3 4 5 5 5 4 5 6 6 6 6 5 4 3 2 1
0 0 0 0 0 0 0 0 0 0 0 0 0 1 1 2 3 4 5 6 6 4 2 1 1 2 5 6 4 4 4 5 6 6 6 6 6 6 6 5 4 3 2 1
0 0 0 0 0 0 0 0 0 0 0 0 0 0 1 2 3 4 5 5 6 5 2 0 0 0 2 4 5 4 3 3 4 5 6 6 6 5 5 4 2 1 1 0
0 0 0 0 0 0 0 0 0 0 0 0 0 0 1 1 3 3 4 4 4 4 2 1 1 0 1 2 3 3 2 2 2 3 4 5 4 2 2 1 1 1 0 0
0 0 0 0 0 0 0 0 0 0 0 1 1 0 0 1 2 2 3 3 3 3 3 2 1 0 0 1 2 1 1 1 1 1 2 3 3 1 0 0 0 0 0 0
0 0 0 0 0 0 0 0 1 1 1 1 2 1 0 1 1 1 1 2 1 1 2 2 1 0 0 1 1 0 0 0 0 0 1 2 3 1 0 0 0 0 0 1
0 0 0 0 0 0 0 0 1 1 1 1 2 2 1 0 0 0 0 0 0 0 1 1 0 0 0 0 0 0 0 0 0 0 0 1 2 2 1 1 0 0 0 1
0 0 0 0 0 0 0 0 1 1 0 0 1 1 1 1 0 0 0 0 0 0 0 0 0 0 0 0 0 0 0 0 0 0 0 0 1 2 2 2 1 0 0 1
0 0 0 0 0 0 0 0 0 0 0 0 0 0 1 1 1 0 0 0 0 0 0 0 0 0 0 0 0 1 1 1 0 0 0 0 0 2 3 3 2 1 0 0
0 0 0 0 0 0 0 0 0 0 0 0 0 0 0 1 1 0 0 0 0 0 0 0 0 0 0 0 1 2 2 1 0 0 0 0 1 2 3 3 3 2 1 0
0 0 0 0 0 0 0 0 0 0 0 0 0 0 0 0 1 1 1 0 0 0 0 0 0 0 0 0 1 1 1 0 0 0 0 0 1 2 3 3 3 2 1 0
0 0 0 0 0 0 0 0 0 0 0 0 0 0 0 0 0 1 1 0 0 0 0 0 0 0 1 1 0 0 0 0 0 0 0 0 0 1 2 2 2 2 1 0
0 0 0 0 0 0 0 0 0 0 0 0 0 0 0 0 0 1 1 0 0 0 0 0 0 1 2 2 1 0 0 0 0 0 0 0 0 0 1 1 1 1 0 0

GEFSCGP_con_probscp_198.txt.gz
Probability
0 0 0 0 0 0 0 0 1 2 2 2 4 8 12 11 8 8 12 17 21 23 28 35 39 40 46 53 55 54 53 50 48 48 48 49 49 46 42 39 36 35 34 33
0 0 0 0 0 0 0 0 1 1 1 1 3 7 10 11 9 8 11 15 19 25 31 37 40 42 47 53 54 53 52 50 47 47 47 47 47 45 41 37 35 33 31 29
0 0 0 0 0 0 0 0 0 0 0 1 3 5 8 10 9 8 10 12 16 25 33 38 41 42 45 49 51 52 52 50 46 45 45 45 45 42 39 35 32 29 26 25
0 0 0 0 0 0 0 0 0 0 0 1 2 3 7 11 10 8 9 10 14 23 33 38 38 39 41 43 46 50 52 49 46 44 44 44 42 39 37 34 29 26 22 21
0 0 0 0 0 0 0 0 0 0 0 0 1 2 6 12 14 12 11 12 18 24 32 37 36 37 39 39 40 46 50 49 46 44 43 41 38 35 34 31 27 22 19 17
0 0 0 0 0 0 0 0 0 0 0 0 0 1 5 12 17 17 15 17 21 25 29 33 34 36 38 38 37 43 48 47 44 42 39 35 32 30 29 27 24 19 17 16
0 0 0 0 0 0 0 0 0 0 0 0 0 2 6 13 18 18 17 18 21 22 23 27 31 35 37 39 41 43 45 43 40 36 33 30 26 25 25 24 20 17 16 15
0 0 0 0 0 0 0 0 0 0 0 0 0 4 10 15 19 20 19 19 20 19 19 22 26 30 33 38 42 42 39 37 33 29 26 26 25 24 23 20 17 15 13 12
0 0 0 0 0 0 0 0 0 0 0 0 0 4 12 17 19 21 20 19 18 18 18 20 23 26 29 34 37 35 32 29 27 24 23 22 23 23 21 18 15 12 10 9
0 0 0 0 0 0 0 0 0 0 0 0 0 3 10 16 17 17 17 15 16 17 17 17 20 23 26 28 29 26 23 22 21 21 21 20 20 22 21 18 14 12 10 9
0 0 0 0 0 0 0 0 0 0 0 0 0 1 8 16 17 14 12 12 13 14 13 13 16 20 22 21 20 19 18 17 17 17 18 18 19 20 20 17 14 13 12 12
0 0 0 0 0 0 0 0 0 0 1 1 1 2 8 15 16 15 13 11 11 11 10 10 12 15 16 15 15 16 15 13 13 14 16 17 18 19 18 16 14 13 13 14
0 0 0 0 0 0 0 0 0 0 1 2 2 3 7 10 12 14 13 11 9 8 7 8 10 10 9 9 11 13 12 11 10 12 13 13 14 15 14 13 12 11 11 12
0 0 0 0 0 0 0 0 0 0 1 1 1 2 3 6 9 11 10 8 7 6 5 7 8 6 5 5 7 9 9 9 8 9 10 10 10 11 10 9 8 7 7 6
0 0 0 0 0 0 0 0 0 0 0 0 0 1 3 5 8 9 6 4 5 5 5 6 6 5 3 3 4 6 7 6 6 6 7 8 8 8 8 6 5 5 3 2
0 0 0 0 0 0 0 0 0 0 1 1 1 2 4 6 7 7 5 3 3 4 5 5 5 4 4 4 4 4 5 4 4 5 4 4 5 5 5 5 5 5 3 2
0 0 0 0 0 0 0 0 0 0 1 2 2 2 3 5 6 5 4 3 3 4 4 4 4 4 5 5 4 3 4 3 3 4 3 2 2 4 4 5 6 5 2 1
0 0 0 0 0 0 0 0 0 0 1 1 1 1 3 5 5 4 3 3 4 5 5 4 4 5 5 4 3 3 3 3 3 3 3 2 2 3 5 6 6 4 2 1
0 0 0 0 0 0 0 0 0 1 1 1 0 1 2 4 3 2 2 3 4 4 4 3 3 4 4 4 4 3 3 3 3 3 3 3 3 4 5 7 6 6 5 4
0 0 0 0 0 0 0 0 0 1 1 1 1 1 1 2 1 0 1 1 2 2 2 1 1 2 3 5 5 4 4 4 4 3 3 3 3 4 4 6 7 9 9 8
0 0 0 0 0 0 0 0 0 0 1 2 2 1 1 1 1 0 0 0 1 1 1 0 0 1 4 6 6 6 6 6 4 3 2 2 3 3 3 5 8 10 10 8
0 0 0 0 0 0 0 0 0 0 1 3 3 3 2 2 1 0 0 0 0 0 0 0 0 1 4 5 5 6 6 6 4 3 2 2 3 3 3 5 7 8 8 8
0 0 0 0 0 0 0 0 0 1 1 3 3 3 2 1 0 0 1 0 0 0 0 0 0 0 1 2 3 4 5 4 3 3 3 4 5 5 6 6 6 5 6 7
0 0 0 0 0 0 0 0 1 2 3 2 1 1 1 0 0 1 2 1 0 0 0 0 0 0 0 0 1 2 3 4 4 4 4 4 4 5 7 7 5 4 4 5
0 0 0 0 0 0 0 0 1 2 3 2 1 0 0 0 0 1 3 3 1 0 0 0 0 0 0 0 1 2 3 4 5 4 3 2 2 2 4 5 4 2 1 1
0 0 0 0 0 0 0 0 0 1 2 1 0 0 0 0 0 1 3 3 1 0 0 1 1 1 0 0 1 1 2 4 4 4 2 1 1 2 2 2 2 1 0 0

GEFSCGP_con_probscp_204.txt.gz
Probability
0 0 0 0 0 0 0 0 0 0 1 4 8 10 8 4 1 2 5 8 13 17 18 17 20 23 26 30 33 33 33 32 29 27 26 26 26 24 23 21 20 20 20 19
0 0 0 0 0 0 0 0 0 0 1 4 7 7 6 4 2 2 4 8 13 16 16 17 19 24 27 30 33 32 31 30 28 26 26 26 25 23 21 20 18 18 19 19
0 0 0 0 0 0 0 0 0 0 1 3 5 5 5 5 3 2 3 8 12 14 14 15 18 23 27 29 29 29 27 26 25 23 24 25 23 20 17 16 15 16 17 18
0 0 0 0 0 0 0 0 0 0 0 1 2 3 3 4 3 2 2 6 10 11 12 13 17 21 23 23 24 25 24 22 21 21 22 23 20 16 13 12 12 12 13 14
0 0 0 0 0 0 0 0 0 0 0 0 1 1 2 2 2 2 3 6 8 9 10 13 15 17 18 19 21 23 22 20 19 18 19 18 15 12 10 8 9 9 9 10
0 0 0 0 0 0 0 0 0 0 0 0 0 0 1 2 2 4 7 8 8 8 10 12 13 14 16 18 20 22 20 18 17 16 14 12 10 8 6 5 5 6 6 6
0 0 0 0 0 0 0 0 0 0 0 0 0 0 1 2 3 6 8 9 9 9 10 11 12 13 14 15 18 19 17 15 14 13 10 7 5 5 4 3 3 4 4 4
0 0 0 0 0 0 0 0 0 0 0 0 0 0 2 3 4 5 7 8 8 9 8 9 11 13 14 14 15 15 14 12 11 9 7 5 4 4 4 3 3 3 3 3
0 0 0 0 0 0 0 0 0 0 0 0 0 1 3 4 3 4 5 6 6 6 6 7 8 10 13 13 13 12 10 9 7 6 6 5 4 3 3 2 2 2 3 3
0 0 0 0 0 0 0 0 0 0 0 0 0 1 2 3 3 3 4 5 4 3 3 4 4 5 7 9 9 7 6 5 4 4 5 4 3 1 1 1 2 1 1 2
0 0 0 0 0 0 0 0 0 0 0 0 0 0 1 1 1 1 2 3 3 1 1 2 2 2 3 4 5 4 2 1 1 2 3 2 1 0 0 1 1 1 1 1
0 0 0 0 0 0 0 0 0 0 0 0 0 0 0 0 0 0 0 1 1 0 0 1 1 1 2 3 3 2 1 0 0 1 1 1 0 0 0 0 0 0 0 0
0 0 0 0 0 0 0 0 0 0 0 0 0 0 0 0 0 0 0 0 0 0 0 0 0 1 3 3 3 2 1 0 0 0 0 0 0 0 0 0 0 0 0 0
0 0 0 0 0 0 0 0 0 0 0 0 0 0 0 0 0 0 0 0 0 0 1 1 1 2 3 3 3 2 1 0 0 0 0 0 0 0 0 0 0 0 0 0
0 0 0 0 0 0 0 0 0 0 0 0 0 0 0 0 0 0 0 0 0 1 2 2 1 2 3 3 3 1 0 0 0 0 0 0 0 0 0 0 0 0 0 0
0 0 0 0 0 0 0 0 0 0 0 0 0 0 0 0 0 0 0 0 1 2 3 3 2 2 2 2 2 1 0 0 0 0 0 0 0 0 0 0 0 0 0 0
0 0 0 0 0 0 0 0 0 0 0 0 0 0 0 0 0 0 0 0 1 2 2 2 2 1 1 1 1 0 0 0 0 0 0 0 0 0 0 0 0 0 0 0
0 0 0 0 0 0 0 0 0 0 0 0 0 1 1 0 0 0 0 0 1 1 1 1 1 0 0 0 0 0 0 0 0 0 0 0 0 0 0 0 0 0 0 0
0 0 0 0 0 0 0 0 0 0 0 0 0 1 1 0 0 0 0 0 0 0 0 0 0 0 0 0 0 0 0 0 0 0 0 0 0 0 0 0 0 0 0 0
0 0 0 0 0 0 0 0 0 0 0 0 0 0 0 0 0 0 0 0 0 0 0 0 0 0 0 0 0 0 0 0 0 0 0 0 0 0 0 0 0 0 0 0
0 0 0 0 0 0 0 0 0 0 0 0 0 0 0 0 0 0 0 0 0 0 0 0 0 0 0 0 0 0 0 0 0 0 0 0 0 0 0 0 0 0 0 0
0 0 0 0 0 0 0 0 0 0 0 0 0 0 0 0 0 0 0 0 0 0 0 0 0 0 0 0 0 0 0 0 0 0 0 0 0 0 0 0 0 0 0 0
0 0 0 0 0 0 0 0 0 0 0 0 0 0 0 0 0 0 0 0 0 0 0 0 0 0 0 0 0 0 0 0 0 0 0 0 1 1 1 0 0 0 0 0
0 0 0 0 0 0 0 0 0 0 0 0 0 0 0 0 0 0 0 0 0 0 0 0 0 0 0 0 0 0 0 0 0 0 0 1 2 2 1 0 0 0 0 0
0 0 0 0 0 0 0 0 0 0 0 0 0 0 0 0 0 0 0 0 0 0 0 0 0 0 0 0 0 0 0 0 0 0 0 1 2 2 1 0 0 0 0 0
0 0 0 0 0 0 0 0 0 0 0 0 0 0 0 0 0 0 0 0 0 0 0 0 0 0 0 0 0 0 0 0 0 0 0 0 1 1 0 0 0 0 0 0

GEFSCGP_con_probscp_210.txt.gz
Probability
0 0 0 0 0 0 0 0 0 0 0 0 0 1 2 2 2 3 4 3 2 3 7 9 10 10 11 11 12 14 14 12 11 12 12 10 8 8 9 7 6 8 10 10
0 0 0 0 0 0 0 0 0 0 0 0 1 1 2 2 2 3 4 3 4 5 8 9 10 10 10 9 11 12 12 11 10 11 12 10 7 6 6 6 5 5 7 8
0 0 0 0 0 0 0 0 0 0 0 0 1 1 1 1 1 2 3 3 4 6 9 9 9 9 9 8 8 9 9 10 11 12 12 9 6 4 4 4 3 3 4 4
0 0 0 0 0 0 0 0 0 0 0 0 0 0 0 0 0 1 2 3 4 5 8 8 7 7 8 8 7 7 8 11 14 14 12 9 7 6 5 3 1 1 2 1
0 0 0 0 0 0 0 0 0 0 0 0 0 0 0 0 0 1 2 3 3 4 6 6 5 5 7 8 7 6 9 13 15 14 11 10 9 7 4 2 1 0 0 0
1 0 0 0 0 0 0 0 0 0 0 0 0 0 0 0 1 1 2 2 2 4 6 7 6 7 7 7 6 5 8 13 14 12 10 9 8 5 3 1 0 0 0 0
1 0 0 0 0 0 0 0 0 0 0 0 0 0 0 1 1 1 1 2 2 4 6 7 8 8 8 7 5 4 6 10 12 11 9 8 6 4 2 1 0 0 0 0
1 0 0 0 0 0 0 0 0 0 0 0 0 0 0 0 0 0 0 1 2 3 4 4 5 6 6 6 5 4 4 7 9 9 8 6 4 3 2 1 0 0 0 0
0 0 0 0 0 0 0 0 0 0 0 0 0 0 0 0 0 0 0 0 1 2 2 1 1 2 3 3 3 3 2 3 5 6 4 3 3 2 1 0 0 0 0 0
0 0 0 0 0 0 0 0 0 0 0 0 0 0 0 0 0 0 0 0 0 1 1 0 0 0 1 1 1 1 0 1 2 2 1 1 1 1 0 0 0 0 0 0
0 0 0 0 0 0 0 0 0 0 0 0 0 0 0 0 0 0 0 0 0 1 1 0 0 0 0 0 0 0 0 0 0 0 0 0 0 0 0 0 0 0 0 0
0 0 0 0 0 0 0 0 0 0 0 0 0 0 0 0 0 0 0 0 0 0 0 0 0 0 0 0 0 0 0 0 0 0 0 0 0 0 0 0 0 0 0 0
0 0 0 0 0 0 0 0 0 0 0 0 0 0 0 0 0 0 0 0 0 0 0 0 0 0 0 0 0 0 0 0 0 0 0 0 0 0 0 0 0 0 0 0
0 0 0 0 0 0 0 0 0 0 0 0 0 0 0 0 0 0 0 0 0 0 0 0 0 0 0 0 0 0 0 0 0 0 0 0 0 0 0 0 0 0 0 0
0 0 0 0 0 0 0 0 0 0 0 0 0 0 0 0 0 0 0 0 0 0 0 0 0 0 0 0 0 0 0 0 0 0 0 0 0 0 0 0 0 0 0 0
0 0 0 0 0 0 0 0 0 0 0 0 0 0 0 0 0 0 0 0 0 0 0 0 0 0 0 0 0 0 0 0 0 0 0 0 0 0 0 0 0 0 0 0
0 0 0 0 0 0 0 0 0 0 0 0 0 0 0 0 0 0 0 0 0 0 0 0 0 0 0 0 0 0 0 0 0 0 0 0 0 0 0 0 0 0 0 0
0 0 0 0 0 0 0 0 0 0 0 0 0 0 0 0 0 0 0 0 0 0 0 0 0 0 0 0 0 0 0 0 0 0 0 0 0 0 0 0 0 0 0 0
0 0 0 0 0 0 0 0 0 0 0 0 0 0 0 0 0 0 0 0 0 0 0 0 0 0 0 0 0 0 0 0 0 0 0 0 0 0 0 0 0 0 0 0
0 0 0 0 0 0 0 0 0 0 0 0 0 0 0 0 0 0 0 0 0 0 0 0 0 0 0 0 0 0 0 0 0 0 0 0 0 0 0 0 0 0 0 0
0 0 0 0 0 0 0 0 0 0 0 0 0 0 0 0 0 0 0 0 0 0 0 0 0 0 0 0 0 0 0 0 0 0 0 0 0 0 0 0 0 0 0 0
0 0 0 0 0 0 0 0 0 0 0 0 0 0 0 0 0 0 0 0 0 0 0 0 0 0 0 0 0 0 0 0 0 0 0 0 0 0 0 0 0 0 0 0
0 0 0 0 0 0 0 0 0 0 0 0 0 0 0 0 0 0 0 0 0 0 0 0 0 0 0 0 0 0 0 0 0 0 0 0 0 0 0 0 0 0 0 0
0 0 0 0 0 0 0 0 0 0 0 0 0 0 0 0 0 0 0 0 0 0 0 0 0 0 0 0 0 0 0 0 0 0 0 0 0 0 0 0 0 0 0 0
0 0 0 0 0 0 0 0 0 0 0 0 0 0 0 0 0 0 0 0 0 0 0 0 0 0 0 0 0 0 0 0 0 0 0 0 0 0 0 0 0 0 0 0
0 0 0 0 0 0 0 0 0 0 0 0 0 0 0 0 0 0 0 0 0 0 0 0 0 0 0 0 0 0 0 0 0 0 0 0 0 0 0 0 0 0 0 0

GEFSCGP_con_probscp_216.txt.gz
Probability
0 0 0 0 0 0 0 0 0 0 0 0 0 0 1 1 1 2 5 6 7 9 11 14 16 18 20 21 21 21 22 23 24 27 28 26 22 20 18 17 20 23 22 21
0 0 0 0 0 0 0 0 0 0 0 0 0 0 0 0 0 1 3 5 6 8 10 12 13 15 18 20 20 21 22 22 22 23 25 24 21 19 16 16 20 22 21 20
0 0 0 0 0 0 0 0 0 0 0 0 0 0 0 0 0 0 1 3 5 7 9 10 10 11 15 17 18 18 19 19 20 19 20 21 20 16 15 15 18 20 19 17
0 0 0 0 0 0 0 0 0 0 0 0 0 0 0 0 0 1 2 3 4 6 9 9 9 11 12 13 13 14 16 17 17 17 18 19 18 15 14 15 17 17 15 14
0 0 0 0 0 0 0 0 0 0 0 0 0 1 1 1 1 2 4 5 5 6 9 10 10 11 11 10 11 12 14 15 16 17 17 17 16 13 13 15 15 14 12 11
0 0 0 0 0 0 0 0 0 0 0 0 0 1 2 2 3 3 5 7 6 6 8 10 11 12 11 10 11 12 13 14 15 16 16 15 13 11 11 12 13 12 11 10
0 0 0 0 0 0 0 0 0 0 0 0 0 0 1 2 3 3 4 6 6 5 6 10 12 12 12 11 10 10 9 10 12 13 14 15 13 11 10 10 11 11 11 10
0 0 0 0 0 0 0 0 0 0 0 0 0 0 0 1 2 3 3 4 5 4 5 8 11 10 10 9 8 6 4 5 8 10 12 13 12 11 10 10 9 10 9 8
0 0 0 0 0 0 0 0 0 0 0 0 0 0 0 1 2 3 3 4 4 3 3 5 7 6 5 5 5 4 3 4 6 8 9 9 10 10 10 9 8 8 8 7
0 0 0 0 0 0 0 0 0 0 0 0 0 0 1 2 3 4 4 3 3 2 1 2 3 2 2 2 3 4 5 6 6 7 6 6 7 8 8 7 7 7 7 7
0 0 0 0 0 0 0 0 0 0 0 0 0 0 1 2 2 3 3 3 2 0 0 1 1 0 1 2 3 3 4 5 6 6 6 6 6 7 6 6 6 7 7 7
0 0 0 0 0 0 0 0 0 0 0 0 0 1 1 1 0 1 2 2 1 0 1 1 1 1 2 2 2 2 2 3 4 4 5 6 6 6 6 6 6 6 6 6
0 0 0 0 0 0 0 0 0 0 0 0 0 1 2 1 0 0 1 2 1 1 2 2 2 2 2 1 2 2 3 3 3 3 4 5 6 6 6 6 6 6 6 6
0 0 0 0 0 0 0 0 0 0 0 0 0 1 1 1 0 0 1 1 1 1 2 3 2 1 1 1 1 2 3 3 3 3 3 3 4 5 6 6 6 6 6 6
0 0 0 0 0 0 0 0 0 0 0 0 0 0 0 0 0 0 0 0 0 1 1 1 1 0 0 0 1 1 1 2 2 1 1 1 1 2 5 6 6 6 6 6
0 0 0 0 0 0 0 0 0 0 0 0 0 0 0 0 0 0 0 0 0 0 0 0 0 0 0 0 0 0 0 1 1 0 0 0 0 1 2 3 4 5 6 6
0 0 0 0 0 0 0 0 0 0 0 0 0 0 0 0 0 0 0 0 0 0 0 0 0 0 0 0 0 0 0 0 0 0 0 0 0 0 1 1 1 2 3 5
0 0 0 0 0 0 0 0 0 0 0 0 0 0 0 0 0 0 0 0 1 0 0 1 0 0 0 0 0 0 0 0 0 0 0 0 0 0 0 0 0 0 1 3
0 0 0 0 0 0 0 0 0 0 0 0 0 0 0 0 0 0 0 0 0 0 0 0 0 0 0 0 0 0 0 0 0 0 0 0 0 0 0 0 0 0 1 2
0 0 0 0 0 0 0 0 0 0 0 0 0 0 0 0 0 0 0 0 0 0 0 0 0 0 0 0 0 0 0 0 0 0 0 0 0 0 0 0 0 0 0 1
0 0 0 0 0 0 0 0 0 0 0 0 0 0 0 0 0 0 0 0 0 0 0 0 0 0 0 0 0 0 0 0 0 0 0 0 0 0 0 0 0 0 0 0
0 0 0 0 0 0 0 0 0 0 0 0 0 0 0 0 0 0 0 0 0 0 0 0 0 0 0 0 0 0 0 0 0 0 0 0 0 0 0 0 0 0 0 0
0 0 0 0 0 0 0 0 0 0 0 0 0 0 0 0 0 0 0 0 0 0 0 0 0 0 0 0 0 0 0 0 0 0 0 0 0 0 0 0 0 0 0 0
0 0 0 0 0 0 0 0 0 0 0 0 0 0 0 0 0 0 0 0 0 0 0 0 0 0 0 0 0 0 0 0 0 0 0 0 0 0 0 0 0 0 0 0
0 0 0 0 0 0 0 0 0 0 0 0 0 0 0 0 0 0 0 0 0 0 0 0 0 0 0 0 0 0 0 0 1 0 0 0 0 0 0 0 0 0 0 0
0 0 0 0 0 0 0 0 0 0 0 0 0 0 0 0 0 0 0 0 0 0 0 0 0 0 0 0 0 0 0 0 1 0 0 0 0 0 0 0 0 0 0 0

GEFSCGP_con_probscp_222.txt.gz
Probability
0 0 0 0 0 0 0 0 0 0 1 2 2 1 0 1 3 4 5 7 10 14 19 22 22 24 29 35 37 39 41 44 43 38 33 33 34 32 28 28 29 29 27 27
1 0 0 0 0 0 0 0 0 1 2 2 2 1 1 2 3 4 5 8 13 17 22 25 25 26 29 33 36 38 40 42 42 37 32 31 32 31 30 31 30 27 25 24
1 1 1 0 0 0 0 0 0 1 1 1 1 1 3 5 6 6 6 10 16 22 25 28 29 27 28 30 31 33 36 39 38 33 27 24 26 28 29 30 27 24 21 20
1 0 0 0 0 0 0 0 0 0 0 0 0 1 5 8 9 7 6 11 18 24 26 29 31 29 27 26 27 29 33 35 32 26 21 20 21 22 23 23 22 19 17 17
0 0 0 0 0 0 0 0 0 0 0 0 0 1 5 8 8 7 6 10 18 23 25 28 29 28 26 25 25 27 30 30 26 21 19 19 19 18 18 18 17 15 14 14
0 0 0 0 0 0 0 0 0 0 0 0 0 2 5 7 7 7 8 11 17 21 24 25 26 26 25 23 21 23 26 25 21 17 17 18 18 16 15 15 15 13 12 12
0 0 0 0 0 0 0 0 0 0 0 0 0 3 7 8 9 10 12 15 18 20 23 25 23 23 22 20 19 19 21 21 20 17 15 15 15 14 13 14 14 14 13 12
0 0 0 0 0 0 0 0 0 0 0 0 1 5 10 12 13 13 16 20 21 21 22 23 21 20 21 20 18 17 18 19 19 15 13 12 13 11 11 13 15 14 14 14
0 0 0 0 0 0 0 0 0 0 0 1 2 6 11 13 13 13 16 20 20 19 19 18 17 17 19 19 17 15 16 17 15 12 9 10 10 10 11 14 15 14 13 13
0 0 0 0 0 0 0 0 0 0 0 0 1 5 10 12 11 11 14 15 14 13 13 12 12 13 15 15 14 12 12 13 12 10 8 8 8 9 12 14 14 12 11 11
0 0 0 0 0 0 0 0 0 0 0 0 0 4 9 10 10 11 12 13 12 9 7 7 8 9 10 10 9 8 8 9 9 9 9 7 7 8 10 11 11 11 10 10
0 0 0 0 0 0 0 0 0 0 0 0 1 6 10 11 10 10 10 11 11 9 6 6 6 7 7 6 5 4 5 5 6 8 7 7 7 8 7 7 8 8 8 8
0 0 0 0 0 0 0 0 0 0 0 0 2 6 9 9 8 8 8 9 8 7 5 5 5 5 5 4 2 2 2 3 3 4 4 5 7 7 6 6 6 5 5 5
0 0 0 0 0 0 0 0 0 1 1 1 1 5 7 7 5 5 6 6 4 3 2 2 3 2 2 1 0 0 1 1 1 1 2 4 6 7 6 6 5 4 4 4
0 0 0 0 0 0 0 0 0 1 2 1 1 3 5 5 4 4 5 4 2 0 0 1 1 0 0 0 0 0 0 0 0 0 1 2 5 6 6 6 5 5 5 6
1 1 0 0 0 0 0 1 1 1 2 1 1 1 3 3 3 3 3 2 1 1 0 0 0 0 0 0 0 0 0 0 0 0 0 1 4 5 5 5 5 6 6 7
2 2 1 0 0 0 0 1 1 1 1 1 0 0 1 1 1 1 1 1 1 1 1 0 0 0 1 2 2 1 0 0 0 0 0 0 1 2 3 3 3 5 7 7
3 3 2 0 0 0 0 1 1 0 1 1 0 0 0 1 0 0 0 0 0 1 2 1 0 2 4 5 5 4 1 0 0 0 0 0 0 0 1 2 3 4 6 6
3 2 1 0 0 0 0 0 0 0 1 1 1 1 0 0 0 0 0 0 0 1 2 2 1 3 5 6 6 5 2 0 0 0 0 0 0 1 2 3 5 5 5 4
1 1 1 0 0 0 0 0 0 0 1 1 1 1 0 0 0 0 0 0 0 1 3 3 3 4 6 7 7 5 1 0 0 0 0 0 1 2 4 5 7 6 4 3
0 0 0 0 0 0 0 0 0 0 0 0 1 1 0 0 0 0 0 0 0 2 4 5 5 6 6 6 6 3 1 0 0 0 0 0 1 2 4 6 6 6 4 3
0 0 0 0 0 0 0 0 0 0 0 0 0 0 0 0 0 0 0 0 0 1 2 4 5 6 6 6 4 2 1 2 1 1 1 1 2 2 3 5 5 4 3 2
0 0 0 0 0 0 0 0 0 0 0 0 0 0 0 0 0 0 0 0 0 0 1 2 3 5 6 5 3 3 3 3 3 2 3 3 3 3 3 3 3 1 1 1
0 0 0 0 0 0 0 0 0 0 0 0 0 0 0 0 0 0 0 0 0 0 0 1 1 2 4 4 3 4 5 4 3 3 3 4 3 3 3 2 1 0 0 0
0 0 0 0 0 0 0 0 0 0 0 0 0 0 0 0 0 0 0 0 0 0 0 0 0 1 2 3 3 3 4 4 3 2 2 2 1 1 1 1 0 0 0 0
0 0 0 0 0 0 0 0 0 0 0 0 0 0 0 0 0 0 0 0 0 0 0 1 1 1 1 1 2 3 3 3 3 2 1 1 0 0 0 0 0 0 0 0

GEFSCGP_con_probscp_228.txt.gz
Probability
2 1 0 0 0 0 0 0 0 0 0 0 1 1 1 3 4 5 6 7 8 7 6 6 5 6 7 7 5 4 4 5 6 6 7 7 4 3 4 4 5 5 3 3
2 1 0 0 0 0 0 0 0 0 0 1 2 3 4 5 6 6 6 8 9 8 7 8 9 10 10 9 7 5 5 5 7 8 7 5 4 3 5 6 6 5 4 4
1 0 0 0 0 0 0 0 0 0 0 1 2 4 6 6 6 7 7 8 9 9 10 12 14 14 12 11 9 7 6 6 8 8 7 5 5 5 5 6 5 5 5 6
0 0 0 0 0 0 0 0 0 0 0 0 1 3 5 4 5 7 6 6 7 9 12 14 15 14 11 10 10 8 7 7 7 7 7 7 7 6 5 5 4 4 6 7
0 0 0 0 0 0 0 0 0 0 0 0 1 2 2 3 4 5 5 5 5 7 10 12 13 11 8 8 8 8 7 6 6 6 7 8 8 7 7 6 5 5 5 6
0 0 0 0 0 0 0 0 0 0 0 0 0 0 0 2 4 5 4 5 5 6 7 9 9 8 6 6 6 7 5 4 4 4 6 8 9 8 8 7 6 6 6 6
0 0 0 0 0 0 0 0 0 0 0 0 0 0 0 2 4 5 5 5 4 5 5 5 6 7 6 5 6 6 5 4 3 3 4 6 7 6 6 6 5 5 6 6
0 0 0 0 0 0 0 0 0 0 0 0 0 0 1 2 4 4 5 5 4 3 4 4 5 6 6 6 6 6 6 5 4 3 3 4 4 4 4 4 3 3 5 5
0 0 0 0 0 0 0 0 0 0 0 0 0 0 1 2 4 4 4 4 3 2 2 2 3 5 6 6 6 6 6 6 5 3 2 4 4 4 3 3 2 2 4 4
0 0 0 0 0 0 0 0 0 0 0 0 0 1 1 2 3 2 2 1 1 0 0 0 1 2 4 5 6 6 6 6 5 2 2 4 5 4 3 3 2 3 4 4
0 0 0 0 0 0 0 0 0 0 0 0 1 1 1 1 1 1 0 0 0 0 0 0 0 1 3 4 4 4 5 4 3 2 3 5 5 4 3 3 3 4 4 4
0 0 0 0 0 0 0 0 0 0 0 0 1 1 1 0 0 0 1 1 1 0 0 0 0 1 2 2 1 1 2 1 1 1 2 3 3 2 2 2 3 3 4 4
0 0 0 0 0 0 0 0 0 0 0 0 0 0 0 1 1 1 2 2 1 0 0 0 0 0 1 1 0 0 0 0 0 0 1 1 1 1 1 1 1 1 2 2
0 0 0 0 0 0 0 0 0 0 0 0 0 0 1 2 2 2 2 1 0 0 0 0 0 0 0 0 0 0 0 0 0 0 0 0 0 0 0 0 0 0 1 1
0 0 0 0 0 0 0 0 0 0 0 0 0 0 1 2 2 2 1 0 0 0 0 0 0 0 0 0 0 0 0 0 0 0 0 0 0 0 0 0 0 0 0 0
0 0 0 0 0 0 0 0 0 0 0 0 0 0 0 1 1 1 0 0 0 0 0 0 0 0 0 0 0 0 0 0 0 0 0 0 0 0 0 0 0 0 0 0
0 0 0 0 0 0 0 0 0 0 0 0 0 0 0 0 0 0 0 0 0 0 0 0 0 0 0 0 0 0 0 0 0 0 0 0 0 0 0 0 0 0 0 0
0 0 0 0 0 0 0 0 0 0 0 0 0 0 0 0 0 0 0 0 0 0 0 0 0 0 0 0 0 0 0 0 0 0 0 0 0 0 0 0 0 0 0 0
0 0 0 0 0 0 0 0 0 0 0 0 0 0 0 0 0 0 0 0 0 0 0 0 0 0 0 0 0 0 0 0 0 0 0 0 0 0 0 0 0 0 0 0
0 0 0 0 0 0 0 0 0 0 0 0 0 0 0 0 0 0 0 0 0 0 0 0 0 0 0 0 0 0 0 0 0 0 0 0 0 0 0 0 0 0 0 0
0 0 0 0 0 0 0 0 0 0 0 0 0 0 0 0 0 0 0 0 0 0 0 0 0 0 0 0 0 0 0 0 0 0 0 0 0 0 0 0 0 0 0 0
0 0 0 0 0 0 0 0 0 0 0 0 0 0 0 0 0 0 0 0 0 0 0 0 0 0 0 0 0 0 0 0 0 0 0 0 0 0 0 0 0 0 0 0
0 0 0 0 0 0 0 0 0 0 0 0 0 0 0 0 0 0 0 0 0 0 0 0 0 0 0 0 0 0 0 0 0 0 0 0 0 0 0 0 0 0 0 0
0 0 0 0 0 0 0 0 0 0 0 0 0 0 0 0 0 0 0 0 0 0 0 0 0 0 0 0 0 0 0 0 0 0 0 0 0 0 0 0 0 0 0 0
0 0 0 0 0 0 0 0 0 0 0 0 0 0 0 0 0 0 0 0 0 0 0 0 0 0 0 0 0 0 0 0 0 0 0 0 0 0 0 0 0 0 0 0
0 0 0 0 0 0 0 0 0 0 0 0 0 0 0 0 0 0 0 0 0 0 0 0 0 0 0 0 0 0 0 0 0 0 0 0 0 0 0 0 0 0 0 0

GEFSCGP_con_probscp_234.txt.gz
Probability
0 0 0 0 0 0 0 0 0 0 0 0 0 0 1 3 6 7 8 9 7 6 4 4 4 5 6 6 4 3 2 1 0 0 0 0 0 0 0 1 3 5 5 4
0 0 0 0 0 0 0 0 0 0 0 0 0 1 2 3 4 4 5 5 5 4 4 5 6 6 6 5 4 3 2 0 0 0 1 1 1 0 0 1 2 4 5 5
0 0 0 0 0 0 0 0 0 0 0 0 0 1 2 2 1 1 1 1 2 2 4 6 6 5 5 5 4 3 2 1 0 1 2 3 3 2 2 1 1 2 4 5
0 0 0 0 0 0 0 0 0 0 0 0 0 1 1 1 0 0 0 1 1 2 4 6 5 4 5 5 4 3 2 1 0 1 3 4 4 4 3 2 1 0 2 4
0 0 0 0 0 0 0 0 0 0 0 0 0 0 0 0 0 0 0 1 2 3 4 5 4 4 4 4 3 2 1 0 1 2 3 3 4 4 3 2 1 0 0 1
0 0 0 0 0 0 0 0 0 0 0 0 0 0 0 0 0 0 0 1 1 2 3 4 4 3 2 2 2 1 0 1 2 3 3 3 3 3 3 2 1 0 0 0
0 0 0 0 0 0 0 0 0 0 0 0 0 0 0 0 0 0 0 0 0 1 2 3 4 3 1 1 1 0 0 1 2 2 2 2 1 2 3 2 1 0 0 0
0 0 0 0 0 0 0 0 0 0 0 0 0 0 0 0 0 0 0 1 0 0 1 3 4 3 2 1 1 1 1 0 1 1 1 1 1 2 3 2 1 0 0 0
0 0 0 0 0 0 0 0 0 0 0 0 0 0 0 0 0 0 1 1 0 0 0 1 1 1 1 2 2 2 2 1 0 0 0 0 0 1 3 2 1 0 0 0
0 0 0 0 0 0 0 0 0 0 0 0 0 0 0 0 0 1 2 2 1 0 0 0 0 0 0 1 2 3 2 1 0 0 0 0 0 1 2 2 1 0 0 0
0 0 0 0 0 0 0 0 0 0 0 0 0 0 0 0 0 1 2 3 2 1 0 0 0 0 0 0 1 2 1 0 0 0 0 0 0 1 3 2 1 0 0 0
0 0 0 0 0 0 0 0 0 0 0 0 0 0 0 0 0 0 1 2 2 1 0 0 0 0 0 0 0 0 0 0 0 0 0 0 1 2 3 2 1 0 0 0
0 0 0 0 0 0 0 0 0 0 0 0 0 0 0 0 0 0 0 1 1 0 0 0 0 0 0 0 0 0 0 0 0 0 0 0 1 2 2 1 0 0 0 0
0 0 0 0 0 0 0 0 0 0 0 0 0 0 0 0 0 0 0 0 0 0 0 0 0 0 0 0 0 0 0 0 0 0 0 0 0 1 1 0 0 0 0 0
0 0 0 0 0 0 0 0 0 0 0 0 0 0 0 0 0 0 0 0 0 0 0 0 0 0 0 0 0 0 0 0 0 0 0 0 0 0 0 0 0 0 0 0
0 0 0 0 0 0 0 0 0 0 0 0 0 0 0 0 0 0 0 0 0 0 0 0 0 0 0 0 0 0 0 0 0 0 0 0 0 0 0 0 0 0 0 0
0 0 0 0 0 0 0 0 0 0 0 0 0 0 0 0 0 0 0 0 0 0 0 0 0 0 0 0 0 0 0 0 0 0 0 0 0 0 0 0 0 0 0 0
0 0 0 0 0 0 0 0 0 0 0 0 0 0 0 0 0 0 0 0 0 0 0 0 0 0 0 0 0 0 0 0 0 0 0 0 0 0 0 0 0 0 0 0
0 0 0 0 0 0 0 0 0 0 0 0 0 0 0 0 0 0 0 0 0 0 0 0 0 0 0 0 0 0 0 0 0 0 0 0 0 0 0 0 0 0 0 0
0 0 0 0 0 0 0 0 0 0 0 0 0 0 0 0 0 0 0 0 0 0 0 0 0 0 0 0 0 0 0 0 0 0 0 0 0 0 0 0 0 0 0 0
0 0 0 0 0 0 0 0 0 0 0 0 0 0 0 0 0 0 0 0 0 0 0 0 0 0 0 0 0 0 0 0 0 0 0 0 0 0 0 0 0 0 0 0
0 0 0 0 0 0 0 0 0 0 0 0 0 0 0 0 0 0 0 0 0 0 0 0 0 0 0 0 0 0 0 0 0 0 0 0 0 0 0 0 0 0 0 0
0 0 0 0 0 0 0 0 0 0 0 0 0 0 0 0 0 0 0 0 0 0 0 0 0 0 0 0 0 0 0 0 0 0 0 0 0 0 0 0 0 0 0 0
0 0 0 0 0 0 0 0 0 0 0 0 0 0 0 0 0 0 0 0 0 0 0 0 0 0 0 0 0 0 0 0 0 0 0 0 0 0 0 0 0 0 0 0
0 0 0 0 0 0 0 0 0 0 0 0 0 0 0 0 0 0 0 0 0 0 0 0 0 0 0 0 0 0 0 0 0 0 0 0 0 0 0 0 0 0 0 0
0 0 0 0 0 0 0 0 0 0 0 0 0 0 0 0 0 0 0 0 0 0 0 0 0 0 0 0 0 0 0 0 0 0 0 0 0 0 0 0 0 0 0 0

GEFSCGP_con_probscp_240.txt.gz
Probability
0 0 0 0 0 0 0 0 0 0 0 0 0 1 2 3 3 4 4 4 5 5 6 9 11 10 8 10 13 13 12 13 12 12 13 13 11 7 5 5 5 4 4 4
0 0 0 0 0 0 0 0 0 0 0 0 0 1 2 3 3 3 3 4 4 4 5 7 10 9 8 11 13 13 13 13 13 14 17 17 15 11 6 4 4 4 3 3
0 0 0 0 0 0 0 0 0 0 0 0 0 1 2 3 3 4 4 3 3 3 4 7 8 7 7 10 13 14 15 15 16 16 18 19 18 14 8 5 4 4 3 3
0 0 0 0 0 0 0 0 0 0 0 0 0 1 1 2 2 4 5 3 2 2 4 5 5 4 4 7 11 13 15 17 18 17 17 18 18 14 9 6 5 5 5 4
0 0 0 0 0 0 0 0 0 0 0 0 0 0 0 0 1 3 5 4 3 4 4 4 3 3 4 6 8 10 12 16 18 18 17 17 15 12 8 6 7 6 5 5
0 0 0 0 0 0 0 0 0 0 0 0 0 0 0 0 0 1 4 6 6 5 4 4 4 6 7 7 8 8 10 13 16 17 17 15 13 11 8 7 6 5 5 6
0 0 0 0 0 0 0 0 0 0 0 0 0 0 0 0 0 1 3 5 6 6 6 6 6 7 7 8 8 9 10 11 13 15 15 14 14 12 9 7 6 5 6 6
0 0 0 0 0 0 0 0 0 0 0 0 0 0 1 0 0 0 1 2 4 6 7 7 6 6 7 8 8 9 9 10 11 12 13 13 14 12 9 8 7 6 6 5
0 0 0 0 0 0 0 0 0 0 0 0 0 0 0 0 0 0 1 3 5 7 7 7 6 6 7 8 8 7 7 8 9 11 11 11 12 11 9 8 7 5 5 4
0 0 0 0 0 0 0 0 0 0 0 0 0 0 1 1 0 1 3 5 7 8 7 6 6 7 7 7 7 6 6 6 8 10 9 8 8 8 7 5 4 4 4 4
0 0 0 0 0 0 0 0 0 0 0 0 0 0 1 1 1 2 5 7 8 9 8 7 6 6 6 6 5 5 4 4 5 6 6 4 4 4 4 3 3 3 3 3
0 0 0 0 0 0 0 0 0 0 0 0 0 0 1 2 2 4 6 6 7 8 9 6 4 4 4 4 3 3 3 2 3 3 3 2 1 1 2 3 3 3 3 3
0 0 0 0 0 0 0 0 0 0 0 0 0 0 0 1 2 3 5 5 5 7 8 5 2 2 2 2 1 1 1 1 1 1 1 1 2 1 1 2 3 3 3 2
0 0 0 0 0 0 0 0 0 0 0 0 0 0 0 1 1 2 4 4 4 6 7 4 1 0 0 0 0 0 0 0 0 0 0 1 1 1 0 1 2 2 1 1
1 0 0 0 0 0 0 0 0 0 0 0 0 0 0 0 0 1 3 4 4 6 6 4 1 0 0 0 0 0 0 0 0 0 0 0 0 0 0 1 1 1 0 0
2 1 0 0 0 0 0 0 0 0 0 0 0 0 0 0 0 1 3 4 5 6 6 4 2 1 0 0 0 0 0 0 0 0 0 0 0 0 0 0 0 0 0 0
3 2 1 0 0 0 0 0 0 0 0 0 0 0 0 0 0 1 1 3 5 6 6 5 4 3 1 0 0 0 0 0 0 0 0 0 0 0 0 0 0 1 1 0
4 3 2 1 0 0 0 0 0 0 0 0 0 0 0 0 0 0 0 2 4 6 6 6 6 4 1 0 0 0 0 0 0 0 0 0 0 0 0 0 1 2 2 1
4 4 3 2 1 0 0 1 1 1 0 0 0 0 0 0 0 0 1 2 4 6 6 6 6 3 1 0 0 0 0 0 0 0 0 0 0 0 0 0 1 2 2 1
4 4 3 3 2 1 1 1 2 1 0 0 0 0 0 0 0 1 2 3 4 6 6 6 4 2 0 0 0 0 0 0 0 0 0 0 0 0 0 0 1 1 1 0
3 3 3 3 2 1 1 1 1 1 1 0 0 0 0 0 2 3 3 3 5 6 6 4 2 0 0 0 0 0 0 0 0 0 0 0 0 0 0 0 0 0 0 0
1 2 2 2 2 2 2 1 1 1 1 1 0 0 0 1 3 4 3 4 6 8 6 2 0 0 0 0 0 0 0 0 0 0 0 0 0 0 0 0 0 0 0 0
0 1 1 1 1 1 1 1 1 1 1 1 0 0 0 2 3 3 3 4 6 7 5 2 0 0 0 0 0 0 0 0 0 0 0 0 0 0 0 1 1 0 0 0
1 0 0 0 0 0 0 0 0 0 0 0 0 0 0 1 2 3 4 5 5 4 3 2 1 1 0 0 0 0 0 0 0 0 0 0 0 0 0 1 2 1 0 0
1 0 0 0 0 0 0 0 0 0 0 0 0 0 0 1 2 3 4 6 5 3 3 3 2 1 0 0 0 0 0 0 0 0 0 0 0 0 0 1 1 1 0 0
1 0 0 0 0 0 0 0 0 0 0 0 0 0 1 1 1 2 5 6 6 5 4 3 3 1 0 0 0 0 0 0 0 0 0 0 0 0 0 0 1 0 0 0

GEFSCGP_con_probscp_246.txt.gz
Probability
0 0 0 0 0 0 0 0 0 0 0 0 0 1 3 5 6 6 7 10 14 18 21 23 24 27 32 35 35 34 34 35 31 26 27 29 27 23 17 14 15 18 19 18
0 0 0 0 0 0 0 0 0 0 0 0 0 1 3 4 6 6 6 8 11 17 23 27 27 27 31 35 35 33 33 34 33 31 33 34 30 24 17 14 15 17 18 16
0 0 0 0 0 0 0 0 0 0 0 0 0 1 3 4 5 5 5 5 7 15 24 28 28 28 30 34 35 33 34 35 35 35 36 35 31 24 18 16 17 17 15 14
0 0 0 0 0 0 0 0 0 0 0 0 0 1 2 5 5 5 5 5 6 12 21 25 25 26 30 34 36 36 35 36 34 33 33 31 28 24 21 19 18 16 15 14
0 0 0 0 0 0 0 0 0 0 0 0 0 0 1 3 4 5 5 5 7 12 17 19 20 23 29 33 36 37 36 34 31 29 29 28 25 24 23 22 19 16 15 14
0 0 0 0 0 0 0 0 0 0 0 0 0 0 0 1 2 2 3 5 9 13 15 15 16 21 26 31 33 33 33 31 28 26 25 24 23 23 23 22 19 16 15 14
0 0 0 0 0 1 0 0 0 0 0 0 0 1 1 1 1 1 2 5 9 12 14 14 15 20 26 30 30 28 27 27 25 23 21 20 20 21 21 19 17 15 14 13
0 0 0 0 0 0 0 0 0 0 0 0 1 2 3 3 3 3 3 6 9 11 12 13 16 21 26 29 28 25 23 23 23 22 20 19 18 17 16 16 15 14 13 12
0 0 1 0 0 0 0 0 0 1 0 0 1 3 5 6 5 5 4 6 10 12 12 14 18 24 27 28 27 25 23 21 22 22 21 19 17 15 13 13 13 13 12 11
0 0 0 0 0 0 0 0 0 1 1 0 0 2 5 6 6 5 4 7 11 14 14 16 21 26 28 27 26 25 23 19 18 18 17 16 15 13 11 10 10 11 10 10
0 0 0 0 0 0 0 0 0 0 1 1 1 2 3 5 6 6 6 8 13 16 17 20 23 25 25 23 20 19 18 15 12 12 12 13 12 11 9 7 8 9 9 9
0 0 0 0 0 0 0 0 0 0 0 1 2 3 4 5 7 8 9 11 15 18 18 20 22 22 21 17 13 11 11 11 9 8 9 11 10 9 8 7 7 8 7 6
1 1 1 0 0 0 0 0 0 0 0 1 2 3 4 5 6 8 9 11 16 18 18 19 20 20 18 14 9 7 7 8 7 6 7 8 9 8 8 8 7 6 5 5
1 1 1 0 0 0 0 0 0 0 0 0 1 2 3 4 5 5 6 9 13 16 17 19 19 19 17 15 10 6 5 6 5 4 4 5 6 6 6 7 6 5 5 6
1 1 0 0 0 0 0 0 0 0 0 0 0 2 4 5 4 3 4 7 11 14 17 19 19 19 19 17 13 7 5 5 3 3 2 3 3 3 3 4 5 6 6 6
4 2 1 0 0 0 0 0 0 0 0 0 1 2 4 6 5 4 4 5 8 13 17 19 19 19 19 18 13 8 6 4 2 1 1 1 1 1 1 1 3 5 6 7
7 6 3 0 0 0 0 0 0 0 0 0 1 2 4 6 6 4 4 4 7 11 16 18 19 19 19 18 15 9 5 3 1 0 0 0 0 0 0 0 1 4 7 10
12 11 5 1 0 0 0 0 0 0 0 0 1 1 3 4 4 4 5 6 7 10 15 18 19 20 20 20 17 10 4 1 0 0 0 0 0 0 0 0 1 4 8 11
15 13 8 2 1 0 0 0 0 0 0 0 0 1 2 3 4 6 8 9 9 10 14 17 18 19 21 22 18 12 6 2 0 0 0 0 0 0 0 1 3 6 9 10
11 12 9 5 3 1 0 0 0 1 2 3 3 3 4 6 8 10 12 13 12 12 14 16 16 19 22 23 20 14 9 6 3 1 0 1 1 1 1 3 5 7 8 8
6 8 7 6 5 2 1 1 2 4 6 8 8 7 8 10 12 12 14 16 15 15 15 15 16 19 23 23 20 16 13 11 7 4 3 4 4 2 2 4 6 8 7 7
4 5 6 7 6 4 3 3 5 7 9 9 8 8 9 11 11 10 12 14 15 15 15 15 16 20 22 22 20 17 15 14 11 9 8 8 6 3 2 3 6 7 7 6
5 6 8 9 8 6 4 4 5 6 7 6 5 4 5 7 8 7 9 12 13 13 14 14 15 17 19 19 18 17 15 13 13 13 12 10 7 5 3 4 4 5 6 6
5 7 9 10 9 6 4 4 4 3 3 3 2 1 2 4 5 6 7 10 12 13 13 13 13 14 15 15 15 14 12 11 11 12 12 10 8 7 6 5 4 5 6 6
4 6 8 9 7 4 2 2 2 1 1 1 0 0 0 2 3 4 6 9 12 13 14 13 13 13 13 13 12 10 9 9 10 12 11 8 6 6 5 4 4 4 5 4
3 6 9 8 6 3 1 1 1 0 0 0 0 0 0 1 2 4 5 9 12 13 13 14 14 13 12 11 10 8 9 9 11 12 10 6 4 4 2 2 3 3 2 2